Flight Track Log - Related Links

Times and Time Zones

All times are in EDT time to prevent confusion due to time zone crossing. See the DAL2241 flight status page for this flight to view local times or setup timezone preferences in your user account.

Time Position Orientation Groundspeed Altitude Reporting Facility
EDT Latitude Longitude Course Direction KTS MPH feet Rate Location/Type
05:14PM 40.8108 -112.0006 190° South 184 212 4,900  Level Salt Lake Center
05:15PM 40.8194 -112.0039 344° North 177 204 5,300 2,000 Climbing Salt Lake Center
05:16PM 40.8275 -112.0836 278° West 230 265 7,500 2,488 Climbing Salt Lake Center
05:17PM 40.6990 -112.2833 180° South  Level FlightAware Approximate
05:17PM 40.8164 -112.1822 262° West 277 319 10,400  Level Salt Lake Center
05:18PM 40.5951 -112.2936 186° South  Level FlightAware Approximate
05:18PM 40.7528 -112.2711 227° Southwest 299 344 13,900  Level Salt Lake Center
05:19PM 40.4917 -112.3093 190° South  Level FlightAware Approximate
05:19PM 40.6694 -112.2950 192° South 305 351 17,200  Level Salt Lake Center
05:20PM 40.3889 -112.3321 190° South  Level FlightAware Approximate
05:20PM 40.5853 -112.3089 187° South 307 353 20,000  Level Salt Lake Center
05:21PM 40.4919 -112.3269 188° South 344 396 21,600 1,756 Climbing Salt Lake Center
05:22PM 40.3953 -112.3472 189° South 353 406 23,600 2,049 Climbing Salt Lake Center
05:23PM 40.2967 -112.3844 196° South 365 420 25,800 2,244 Climbing Salt Lake Center
05:24PM 40.2083 -112.4506 210° Southwest 364 419 28,200 1,317 Climbing Salt Lake Center
05:25PM 40.1147 -112.5175 209° Southwest 390 449 28,500 829 Climbing Salt Lake Center
05:26PM 39.9933 -112.6014 208° Southwest 412 474 29,900 1,403 Climbing Salt Lake Center
05:27PM 39.8925 -112.6736 209° Southwest 412 474 31,400 1,024 Climbing Salt Lake Center
05:28PM 39.7889 -112.7400 206° Southwest 414 476 32,000 293 Climbing Salt Lake Center
05:29PM 39.6822 -112.8156 209° Southwest 412 474 32,000  Level Salt Lake Center
05:30PM 39.5708 -112.8539 195° South 416 479 32,000  Level Salt Lake Center
05:31PM 39.4578 -112.8906 194° South 418 481 32,000  Level Salt Lake Center
05:32PM 39.3444 -112.9286 195° South 421 484 32,000  Level Salt Lake Center
05:33PM 39.2294 -112.9661 194° South 426 490 32,000  Level Salt Lake Center
05:34PM 39.1161 -113.0044 195° South 422 486 32,000  Level Salt Lake Center
05:35PM 39.0025 -113.0369 193° South 419 482 32,000 732 Level Salt Lake Center
05:36PM 38.8656 -113.0811 194° South 423 487 33,500 1,463 Climbing Salt Lake Center
05:37PM 38.7531 -113.1175 194° South 420 483 35,000 927 Climbing Salt Lake Center
05:38PM 38.6425 -113.1517 194° South 412 474 35,400 484 Climbing Salt Lake Center
05:39PM 38.5311 -113.1886 195° South 414 476 36,000 293 Climbing Salt Lake Center
05:40PM 38.4181 -113.2231 193° South 417 480 36,000  Level Salt Lake Center
05:41PM 38.3042 -113.2614 195° South 423 487 36,000 242 Level Salt Lake Center
05:42PM 38.1922 -113.2969 194° South 418 481 36,500 683 Climbing Salt Lake Center
05:43PM 38.0558 -113.3392 194° South 423 487 37,400 683 Climbing Salt Lake Center
05:44PM 37.9431 -113.3728 193° South 420 483 37,900 293 Climbing Salt Lake Center
05:46PM 37.8408 -113.4342 205° Southwest 409 471 38,000 49 Climbing Salt Lake Center
05:47PM 37.7461 -113.5092 212° Southwest 405 466 38,000  Level Salt Lake Center
05:48PM 37.6525 -113.5850 213° Southwest 403 464 38,000  Level Salt Lake Center
05:49PM 37.5583 -113.6589 212° Southwest 402 463 38,000  Level Salt Lake Center
05:50PM 37.4442 -113.7489 212° Southwest 405 466 38,000  Level Salt Lake Center
05:51PM 37.3492 -113.8214 211° Southwest 402 463 38,000  Level Salt Lake Center
05:52PM 37.2558 -113.8956 212° Southwest 400 460 38,000  Level Salt Lake Center
05:53PM 37.1619 -113.9683 212° Southwest 398 458 38,000  Level Salt Lake Center
05:53PM 37.1078 -114.0128 213° Southwest 398 458 38,000  Level Los Angeles Center
05:54PM 37.0131 -114.0858 212° Southwest 398 458 38,000  Level Los Angeles Center
05:55PM 36.9164 -114.1575 211° Southwest 401 461 38,000  Level Los Angeles Center
05:56PM 36.8208 -114.2322 212° Southwest 403 464 38,000  Level Los Angeles Center
05:57PM 36.7069 -114.3200 212° Southwest 402 463 38,000  Level Los Angeles Center
05:58PM 36.6114 -114.3939 212° Southwest 403 464 38,000  Level Los Angeles Center
05:59PM 36.5161 -114.4669 212° Southwest 402 463 38,000  Level Los Angeles Center
06:01PM 36.4206 -114.5406 212° Southwest 403 464 38,000  Level Los Angeles Center
06:02PM 36.3247 -114.6128 211° Southwest 402 463 38,000  Level Los Angeles Center
06:03PM 36.2292 -114.6869 212° Southwest 402 463 38,000  Level Los Angeles Center
06:04PM 36.1119 -114.7742 211° Southwest 406 467 38,000  Level Los Angeles Center
06:05PM 36.0158 -114.8469 211° Southwest 404 465 38,000  Level Los Angeles Center
06:06PM 35.9383 -114.9394 224° Southwest 381 438 38,000  Level Los Angeles Center
06:07PM 35.8658 -115.0386 228° Southwest 384 442 38,000  Level Los Angeles Center
06:08PM 35.7922 -115.1386 228° Southwest 390 449 38,000  Level Los Angeles Center
06:09PM 35.7186 -115.2369 227° Southwest 389 448 38,000  Level Los Angeles Center
06:10PM 35.6431 -115.3392 228° Southwest 397 457 38,000  Level Los Angeles Center
06:11PM 35.5694 -115.4342 226° Southwest 387 445 38,000  Level Los Angeles Center
06:12PM 35.4744 -115.5411 223° Southwest 384 442 38,000  Level Los Angeles Center
06:13PM 35.3994 -115.6361 226° Southwest 385 443 38,000 -353 Level Los Angeles Center
06:14PM 35.3206 -115.7267 223° Southwest 388 447 37,200 -968 Descending Los Angeles Center
06:15PM 35.2267 -115.8331 223° Southwest 385 443 36,000 -1,016 Descending Los Angeles Center
06:16PM 35.1483 -115.9272 225° Southwest 388 447 35,100 -871 Descending Los Angeles Center
06:17PM 35.0669 -116.0189 223° Southwest 393 452 34,200 -968 Descending Los Angeles Center
06:19PM 34.9874 -116.1403 231° Southwest  Level FlightAware Approximate
06:20PM 34.8192 -116.3053 231° Southwest 384 442 31,100  Level Los Angeles Center
06:21PM 34.7408 -116.3931 223° Southwest 383 441 30,100 -960 Descending Los Angeles Center
06:22PM 34.6628 -116.4822 223° Southwest 384 442 29,100 -968 Descending Los Angeles Center
06:23PM 34.5869 -116.5678 223° Southwest 375 432 28,100 -1,016 Descending Los Angeles Center
06:25PM 34.5125 -116.6503 222° Southwest 364 419 27,000 -1,024 Descending Los Angeles Center
06:26PM 34.4754 -116.7452 231° Southwest  Level FlightAware Approximate
06:26PM 34.4386 -116.7344 223° Southwest 362 417 26,000  Level Los Angeles Center
06:27PM 34.3506 -116.8342 223° Southwest 359 413 24,800 -1,056 Descending Los Angeles Center
06:28PM 34.2783 -116.9153 223° Southwest 354 407 23,800 -1,548 Descending Los Angeles Center
06:29PM 34.2089 -116.9944 223° Southwest 344 396 21,600 -2,323 Descending Los Angeles Center
06:30PM 34.1433 -117.0683 223° Southwest 323 372 19,000 -1,694 Descending Los Angeles Center
06:31PM 34.0869 -117.1567 232° Southwest 286 329 18,100 -1,210 Descending Los Angeles Center
06:32PM 34.0508 -117.2361 241° Southwest 275 316 16,500 -1,645 Descending Los Angeles Center
06:33PM 34.0333 -117.3333 258° West 258 297 14,700 -1,721 Descending Southern California TRACON
06:34PM 34.0333 -117.4167 270° West 254 292 13,000 -1,636 Descending Southern California TRACON
06:35PM 34.0167 -117.5000 256° West 252 290 11,400 -1,488 Descending Southern California TRACON
06:36PM 34.0167 -117.5833 270° West 301 346 10,000 -737 Descending Southern California TRACON
06:37PM 34.0000 -117.6667 256° West 274 315 10,000 -500 Level Southern California TRACON
06:38PM 34.0000 -117.7667 270° West 261 300 9,000 -1,048 Descending Southern California TRACON
06:39PM 33.9833 -117.8500 256° West 252 290 7,800 -1,200 Descending Southern California TRACON
06:40PM 33.9833 -117.9333 270° West 255 293 6,600 -1,050 Descending Southern California TRACON
06:41PM 33.9667 -118.0167 256° West 256 295 5,700 -950 Descending Southern California TRACON
06:42PM 33.9667 -118.1000 270° West 236 272 4,700 -800 Descending Southern California TRACON
06:43PM 33.9667 -118.1667 270° West 219 252 4,100 -769 Descending Southern California TRACON
06:43PM 33.9569 -118.1964 248° West 232 267 3,700 -1,333 Descending Los Angeles Center

Login

Don't have an account? Register now (free) for customized features, flight alerts, and more!